CZ-3C DEB, 39354

Orbit data source: Space-Track

CZ-3C DEB, 39354 is space debris in HEO originally from a launch on Sun, 31 Oct 2010 UTC launched from the Xichang Space Center, China (XSC). Debris objects in space refer to the collection of defunct objects orbiting the Earth. Examples of debris include non-operational satellites, rocket bodies, and fragments generated from explosions, collisions, or faulty payload assembly.

Loading next visibility...
Identifier
39354, 2010-057U
Orbit
HEO
Country
Flag of CNCN / PRC
Related business
Manufacturer
CALT
Mission
Spacecraft
Bus & Motor
Unknown
Mass
Unknown
Launch date (UTC)
2010-10-31 (16 years ago)
Launch vehicle
Unknown
Launch site
Xichang Space Center, China (XSC)
Object type
Payload
Rocket body
Debris
Shape & HBR
Unknown shape, 0.2 m
Radar Cross Section
Medium (>0.1 m² and <1 m²)

Expand to show TLE details & history
Last TLE update: 1 month ago

TLE from 1 month ago
0 CZ-3C DEB
1 39354U 10057U   26225.93165227  .00000136  00000-0  34211-2 0  9992
2 39354  20.7361  70.9104 7177164 203.6342 351.9240  2.22656318100087
Epoch: 2026-08-13T22:21Z
TLE epoch observation values (Epoch: 2026-08-13T22:21:34.756Z)
Latitude
12.4563°
Longitude
-82.25937°
Altitude
2,540.455 km
Speed
8.561 km/s
True Right ascension
14h 21m 59s
True Declination
12° 23' 55"
Sunlit
Object was in daylight at epoch
Visualization orbit readout
Latitude
Unknown
Longitude
Unknown
Altitude
Unknown
Speed
Unknown
Apparent Right ascension
Unknown
Apparent Declination
Unknown
Sunlit
N/A
Visualization observer readout
Local Sidereal Time
08:07:07
Azimuth
Unknown
Elevation
Unknown
Doppler factor
Unknown
Orbital elements
Apogee altitude
36,182.211 km
Perigee altitude
616.084 km
Semi-major axis
24,777.285 km
Eccentricity
0.71772
Inclination
20.7361°
RAAN
70.9104°
Arg. of periapsis
203.6342°
True anomaly
300.11115°
Mean anomaly
351.924°
Eccentric anomaly
333.71114°
Mean motion
0.5565 °/min
Orbital period
646.9 mins
BSTAR
0.0034211
Loading maneuver chart data...
Computing Atmospheric mass density...
Loading historical data...
Loading historical data...
Loading historical data...
Loading historical data...
Loading historical data...
Loading historical data...
Loading historical data...

Documentation

Showing up to 5 results
|